0611100051,1994,01,01,00,3.2
0611100051,1994,01,01,01,3.4
0611100051,1994,01,01,02,3.4
0611100051,1994,01,01,03,3.6
0611100051,1994,01,01,05,3.4
0611100051,1994,01,01,06,3.5
0611100051,1994,01,01,07,3.6
0611100051,1994,01,01,08,3.3
0611100051,1994,01,01,09,3.3
0611100051,1994,01,01,10,3.6
0611100051,1994,01,01,11,3.7
0611100051,1994,01,01,12,4.2
0611100051,1994,01,01,13,4.7
0611100051,1994,01,01,14,4.9
0611100051,1994,01,01,15,4.7
0611100051,1994,01,01,16,4.9
0611100051,1994,01,01,17,5.1
0611100051,1994,01,01,18,4.9
0611100051,1994,01,01,19,4.8
0611100051,1994,01,01,20,4.5
0611100051,1994,01,01,21,4.3
0611100051,1994,01,01,22,4.2
0611100051,1994,01,01,23,4.3
0611100051,1994,01,02,00,4.2
0611100051,1994,01,02,01,4.1
0611100051,1994,01,02,02,4.2
0611100051,1994,01,02,03,4.3
0611100051,1994,01,02,05,4.2
0611100051,1994,01,02,06,4.2
0611100051,1994,01,02,07,4.3
0611100051,1994,01,02,08,4.3
0611100051,1994,01,02,09,4.5
0611100051,1994,01,02,10,4.7
0611100051,1994,01,02,11,5
0611100051,1994,01,02,12,5.5
0611100051,1994,01,02,13,5.7
0611100051,1994,01,02,14,5.5
0611100051,1994,01,02,15,5.5
0611100051,1994,01,02,16,6.3
0611100051,1994,01,02,17,5.5
0611100051,1994,01,02,18,4.1
0611100051,1994,01,02,19,3.8
0611100051,1994,01,02,20,3.8
0611100051,1994,01,02,21,3.8
0611100051,1994,01,02,22,3.8
0611100051,1994,01,02,23,4
0611100051,1994,01,03,00,3.8
0611100051,1994,01,03,01,3.7
0611100051,1994,01,03,02,3.6
0611100051,1994,01,03,03,3.8
0611100051,1994,01,03,05,3.5
0611100051,1994,01,03,06,3.4
0611100051,1994,01,03,07,3.4
0611100051,1994,01,03,08,3.3
0611100051,1994,01,03,09,3.1
0611100051,1994,01,03,10,3.4
0611100051,1994,01,03,11,3.4
0611100051,1994,01,03,12,4.4
0611100051,1994,01,03,13,4.5
0611100051,1994,01,03,14,5
0611100051,1994,01,03,15,4.8
0611100051,1994,01,03,16,5
0611100051,1994,01,03,17,4.8
0611100051,1994,01,03,18,4.7
0611100051,1994,01,03,19,4.4
0611100051,1994,01,03,20,4.1
0611100051,1994,01,03,21,3.9
0611100051,1994,01,03,22,3.9
0611100051,1994,01,03,23,3.8
0611100051,1994,01,04,00,3.5
0611100051,1994,01,04,01,3.3
0611100051,1994,01,04,02,3.5
0611100051,1994,01,04,03,3.4
0611100051,1994,01,04,05,3.5
0611100051,1994,01,04,06,3.4
0611100051,1994,01,04,07,3.5
0611100051,1994,01,04,08,3.2
0611100051,1994,01,04,09,3.1
0611100051,1994,01,04,10,3.1
0611100051,1994,01,04,11,3.6
0611100051,1994,01,04,12,3
0611100051,1994,01,04,13,3.2
0611100051,1994,01,04,14,3.3
0611100051,1994,01,04,15,3
0611100051,1994,01,04,16,4.4
0611100051,1994,01,04,17,3.7
0611100051,1994,01,04,18,3.9
0611100051,1994,01,04,19,3.9
0611100051,1994,01,04,20,3.8
0611100051,1994,01,04,21,3.7
0611100051,1994,01,04,22,3.4
0611100051,1994,01,04,23,3.5
0611100051,1994,01,05,00,3.3
0611100051,1994,01,05,01,3.2
0611100051,1994,01,05,02,3.2
0611100051,1994,01,05,03,2.7
0611100051,1994,01,05,05,2.9
0611100051,1994,01,05,06,2.8
0611100051,1994,01,05,07,2.8
0611100051,1994,01,05,08,2.9
0611100051,1994,01,05,09,3.4
0611100051,1994,01,05,10,3
0611100051,1994,01,05,11,3
0611100051,1994,01,05,12,3.4
0611100051,1994,01,05,13,3.8
0611100051,1994,01,05,14,3.9
0611100051,1994,01,05,15,3.9
0611100051,1994,01,05,16,4.2
0611100051,1994,01,05,17,4.3
0611100051,1994,01,05,18,4.4
0611100051,1994,01,05,19,4.5
0611100051,1994,01,06,00,4.4
0611100051,1994,01,06,01,4.3
0611100051,1994,01,06,02,4
0611100051,1994,01,06,03,3.8
0611100051,1994,01,06,05,3.7
0611100051,1994,01,06,06,3.6
0611100051,1994,01,06,07,3.5
0611100051,1994,01,06,08,3.3
0611100051,1994,01,06,09,3.4
0611100051,1994,01,06,10,3.7
0611100051,1994,01,06,11,3.9
0611100051,1994,01,06,12,3.9
0611100051,1994,01,06,13,3.9
0611100051,1994,01,06,14,3.9
0611100051,1994,01,06,15,3.9
0611100051,1994,01,06,16,3.9
0611100051,1994,01,06,17,3.8
0611100051,1994,01,06,18,3.6
0611100051,1994,01,06,19,3.5
0611100051,1994,01,06,20,3.5
0611100051,1994,01,06,21,3.5
0611100051,1994,01,06,22,3.6
0611100051,1994,01,06,23,3.4
0611100051,1994,01,07,00,3.4
0611100051,1994,01,07,01,3.5
0611100051,1994,01,07,02,3.6
0611100051,1994,01,07,03,3.6
0611100051,1994,01,07,05,3.6
0611100051,1994,01,07,06,3.6
0611100051,1994,01,07,07,3.6
0611100051,1994,01,07,08,3.6
0611100051,1994,01,07,09,3.6
0611100051,1994,01,07,10,3.9
0611100051,1994,01,07,11,3.6
0611100051,1994,01,07,12,3.4
0611100051,1994,01,07,13,3.5
0611100051,1994,01,07,14,3.1
0611100051,1994,01,07,15,2.9
0611100051,1994,01,07,16,3.4
0611100051,1994,01,07,17,3.4
0611100051,1994,01,07,18,3.3
0611100051,1994,01,07,19,3.4
0611100051,1994,01,07,20,3.6
0611100051,1994,01,07,21,3.4
0611100051,1994,01,07,22,3.2
0611100051,1994,01,07,23,3.6
0611100051,1994,01,08,00,3.4
0611100051,1994,01,08,01,3.4
0611100051,1994,01,08,02,3.6
0611100051,1994,01,08,03,3.6
0611100051,1994,01,08,05,3.5
0611100051,1994,01,08,06,3.6
0611100051,1994,01,08,07,3.6
0611100051,1994,01,08,08,3.4
0611100051,1994,01,08,09,3.4
0611100051,1994,01,08,10,3.1
0611100051,1994,01,08,11,3.4
0611100051,1994,01,08,12,3.2
0611100051,1994,01,08,13,3.3
0611100051,1994,01,08,14,3.5
0611100051,1994,01,08,15,3.8
0611100051,1994,01,08,16,4.3
0611100051,1994,01,08,17,3.8
0611100051,1994,01,08,18,3.6
0611100051,1994,01,08,19,3.3
0611100051,1994,01,08,20,3.5
0611100051,1994,01,08,21,3.6
0611100051,1994,01,08,22,3.4
0611100051,1994,01,08,23,3.3
0611100051,1994,01,09,00,3.3
0611100051,1994,01,09,01,3.4
0611100051,1994,01,09,02,3.4
0611100051,1994,01,09,03,3.5
0611100051,1994,01,09,05,3.4
0611100051,1994,01,09,06,3.4
0611100051,1994,01,09,07,3.4
0611100051,1994,01,09,08,3.3
0611100051,1994,01,09,09,3.3
0611100051,1994,01,09,10,3.5
0611100051,1994,01,09,11,3.7
0611100051,1994,01,09,12,4
0611100051,1994,01,09,13,4.2
0611100051,1994,01,09,14,4.4
0611100051,1994,01,09,15,4.3
0611100051,1994,01,09,16,4.3
0611100051,1994,01,09,17,4.1
0611100051,1994,01,09,18,4.2
0611100051,1994,01,09,19,4.1
0611100051,1994,01,09,20,4.2
0611100051,1994,01,09,21,3.7
0611100051,1994,01,09,22,3.7
0611100051,1994,01,09,23,3.6
0611100051,1994,01,10,00,3.7
0611100051,1994,01,10,01,3.8
0611100051,1994,01,10,02,3.6
0611100051,1994,01,10,03,3.6
0611100051,1994,01,10,05,3.6
0611100051,1994,01,10,06,3.6
0611100051,1994,01,10,07,3.6
0611100051,1994,01,10,08,3.5
0611100051,1994,01,10,09,3.5
0611100051,1994,01,10,10,3.7
0611100051,1994,01,10,11,4
0611100051,1994,01,10,12,4.1
0611100051,1994,01,10,13,4.1
0611100051,1994,01,10,14,4.1
0611100051,1994,01,10,15,4.1
0611100051,1994,01,10,16,3.9
0611100051,1994,01,10,17,4
0611100051,1994,01,10,18,4
0611100051,1994,01,10,19,3.9
0611100051,1994,01,10,20,3.8
0611100051,1994,01,10,21,3.6
0611100051,1994,01,10,22,3.4
0611100051,1994,01,10,23,3.4
0611100051,1994,01,11,00,3.3
0611100051,1994,01,11,01,3.4
0611100051,1994,01,11,02,3.4
0611100051,1994,01,11,03,3.4
0611100051,1994,01,11,05,3.5
0611100051,1994,01,11,06,3.4
0611100051,1994,01,11,07,3.3
0611100051,1994,01,11,08,3.3
0611100051,1994,01,11,09,3.3
0611100051,1994,01,11,10,3.5
0611100051,1994,01,11,11,3.6
0611100051,1994,01,11,12,4
0611100051,1994,01,11,13,4.1
0611100051,1994,01,11,14,4.2
0611100051,1994,01,11,15,4
0611100051,1994,01,11,16,3.9
0611100051,1994,01,11,17,4
0611100051,1994,01,11,18,3.7
0611100051,1994,01,11,19,3.5
0611100051,1994,01,11,20,3.9
0611100051,1994,01,11,21,3.7
0611100051,1994,01,11,22,3.5
0611100051,1994,01,11,23,3.6
0611100051,1994,01,12,00,3.6
0611100051,1994,01,12,01,3.8
0611100051,1994,01,12,02,3.7
0611100051,1994,01,12,03,3.6
0611100051,1994,01,12,05,3.6
0611100051,1994,01,12,06,3.7
0611100051,1994,01,12,07,3.5
0611100051,1994,01,12,08,3.4
0611100051,1994,01,12,09,3.4
0611100051,1994,01,12,10,3.5
0611100051,1994,01,12,11,3.4
0611100051,1994,01,12,12,3.5
0611100051,1994,01,12,13,4
0611100051,1994,01,12,14,4.2
0611100051,1994,01,12,15,4.1
0611100051,1994,01,12,16,4.3
0611100051,1994,01,12,17,4.1
0611100051,1994,01,12,18,3.9
0611100051,1994,01,12,19,3.8
0611100051,1994,01,12,20,3.5
0611100051,1994,01,12,21,3.4
0611100051,1994,01,12,22,3.5
0611100051,1994,01,12,23,3.4
0611100051,1994,01,13,00,3.5
0611100051,1994,01,13,01,3.5
0611100051,1994,01,13,02,3.5
0611100051,1994,01,13,03,3.5
0611100051,1994,01,13,05,3.6
0611100051,1994,01,13,06,3.7
0611100051,1994,01,13,07,3.9
0611100051,1994,01,13,08,3.6
0611100051,1994,01,13,09,3.5
0611100051,1994,01,13,10,3.9
0611100051,1994,01,13,11,3.8
0611100051,1994,01,13,12,3.6
0611100051,1994,01,13,13,3.9
0611100051,1994,01,13,14,4.1
0611100051,1994,01,13,15,4.4
0611100051,1994,01,13,16,4.1
0611100051,1994,01,13,17,4.2
0611100051,1994,01,13,18,4
0611100051,1994,01,13,19,3.9
0611100051,1994,01,13,20,3.6
0611100051,1994,01,13,21,3.5
0611100051,1994,01,13,22,3.5
0611100051,1994,01,13,23,3.3
0611100051,1994,01,14,00,3.3
0611100051,1994,01,14,01,3.4
0611100051,1994,01,14,02,3.5
0611100051,1994,01,14,03,3.5
0611100051,1994,01,14,05,3.3
0611100051,1994,01,14,06,3.4
0611100051,1994,01,14,07,3.4
0611100051,1994,01,14,08,3.4
0611100051,1994,01,14,09,3.3
0611100051,1994,01,14,10,3.1
0611100051,1994,01,14,11,3.1
0611100051,1994,01,14,12,3.4
0611100051,1994,01,14,13,2.5
0611100051,1994,01,14,14,2.8
0611100051,1994,01,14,15,3.5
0611100051,1994,01,14,16,2.4
0611100051,1994,01,14,17,2.1
0611100051,1994,01,14,18,2.4
0611100051,1994,01,14,19,3.1
0611100051,1994,01,14,20,2.9
0611100051,1994,01,14,21,2.6
0611100051,1994,01,14,22,2.7
0611100051,1994,01,14,23,2.9
0611100051,1994,01,15,00,3.1
0611100051,1994,01,15,01,3
0611100051,1994,01,15,02,2.9
0611100051,1994,01,15,03,3
0611100051,1994,01,15,05,2.8
0611100051,1994,01,15,06,2.9
0611100051,1994,01,15,07,2.9
0611100051,1994,01,15,08,2.8
0611100051,1994,01,15,09,2.3
0611100051,1994,01,15,10,2.1
0611100051,1994,01,15,11,2.4
0611100051,1994,01,15,12,3.2
0611100051,1994,01,15,13,3.7
0611100051,1994,01,15,14,4
0611100051,1994,01,15,15,3.5
0611100051,1994,01,15,16,3.5
0611100051,1994,01,15,17,3.4
0611100051,1994,01,15,18,3.2
0611100051,1994,01,15,19,2.9
0611100051,1994,01,15,20,2.9
0611100051,1994,01,15,21,2.7
0611100051,1994,01,15,22,2.8
0611100051,1994,01,15,23,2.6
0611100051,1994,01,16,00,2.6
0611100051,1994,01,16,01,2.6
0611100051,1994,01,16,02,2.6
0611100051,1994,01,16,03,2.4
0611100051,1994,01,16,05,2
0611100051,1994,01,16,06,2
0611100051,1994,01,16,07,2.1
0611100051,1994,01,16,08,2.4
0611100051,1994,01,16,09,2.4
0611100051,1994,01,16,10,2.7
0611100051,1994,01,16,11,3.4
0611100051,1994,01,16,12,4.1
0611100051,1994,01,16,13,4.9
0611100051,1994,01,16,14,4.9
0611100051,1994,01,16,15,4.9
0611100051,1994,01,16,16,4.8
0611100051,1994,01,16,17,4.7
0611100051,1994,01,16,18,5
0611100051,1994,01,16,19,5.1
0611100051,1994,01,16,20,4.7
0611100051,1994,01,16,21,4.3
0611100051,1994,01,16,22,4
0611100051,1994,01,16,23,4
0611100051,1994,01,17,00,4
0611100051,1994,01,17,01,3.9
0611100051,1994,01,17,02,3.9
0611100051,1994,01,17,03,3.8
0611100051,1994,01,17,15,4.9
0611100051,1994,01,17,16,5.1
0611100051,1994,01,17,17,5.1
0611100051,1994,01,17,18,5
0611100051,1994,01,17,19,4.6
0611100051,1994,01,17,20,4.4
0611100051,1994,01,17,21,4
0611100051,1994,01,17,22,3.9
0611100051,1994,01,17,23,3.7
0611100051,1994,01,18,00,3.7
0611100051,1994,01,18,01,3.3
0611100051,1994,01,18,02,3.2
0611100051,1994,01,18,03,3.1
0611100051,1994,01,18,05,3
0611100051,1994,01,18,06,3.5
0611100051,1994,01,18,07,3.6
0611100051,1994,01,18,08,3.4
0611100051,1994,01,18,09,2.8
0611100051,1994,01,18,10,3.5
0611100051,1994,01,18,11,4
0611100051,1994,01,18,12,4.3
0611100051,1994,01,18,13,4.2
0611100051,1994,01,18,14,4.2
0611100051,1994,01,18,15,4.4
0611100051,1994,01,18,16,4.2
0611100051,1994,01,18,17,4.1
0611100051,1994,01,18,18,4.3
0611100051,1994,01,18,19,4
0611100051,1994,01,18,20,3.5
0611100051,1994,01,18,21,3.5
0611100051,1994,01,18,22,3.5
0611100051,1994,01,18,23,3.4
0611100051,1994,01,19,00,3.4
0611100051,1994,01,19,01,3.4
0611100051,1994,01,19,02,3.4
0611100051,1994,01,19,03,3.5
0611100051,1994,01,19,05,3.4
0611100051,1994,01,19,06,3.4
0611100051,1994,01,19,07,3.4
0611100051,1994,01,19,08,3.2
0611100051,1994,01,19,09,3.2
0611100051,1994,01,19,10,2.5
0611100051,1994,01,19,11,2
0611100051,1994,01,19,12,2.5
0611100051,1994,01,19,13,3.1
0611100051,1994,01,19,14,3.9
0611100051,1994,01,19,15,3.3
0611100051,1994,01,19,16,3.9
0611100051,1994,01,19,17,4.2
0611100051,1994,01,19,18,4
0611100051,1994,01,19,19,3.7
0611100051,1994,01,19,20,4.2
0611100051,1994,01,19,21,4.7
0611100051,1994,01,19,22,4.5
0611100051,1994,01,19,23,4
0611100051,1994,01,20,00,3.6
0611100051,1994,01,20,01,2.5
0611100051,1994,01,20,02,3.1
0611100051,1994,01,20,03,3.9
0611100051,1994,01,20,05,3
0611100051,1994,01,20,06,2.8
0611100051,1994,01,20,07,4.1
0611100051,1994,01,20,08,3.5
0611100051,1994,01,20,09,2.9
0611100051,1994,01,20,10,2.8
0611100051,1994,01,20,11,2.8
0611100051,1994,01,20,12,3.9
0611100051,1994,01,20,13,4.4
0611100051,1994,01,20,14,6.1
0611100051,1994,01,20,15,5.8
0611100051,1994,01,20,16,4.6
0611100051,1994,01,20,17,5.8
0611100051,1994,01,20,18,6.5
0611100051,1994,01,20,19,5.2
0611100051,1994,01,20,20,5.7
0611100051,1994,01,20,21,5.1
0611100051,1994,01,20,22,6
0611100051,1994,01,20,23,5.9
0611100051,1994,01,21,00,5.5
0611100051,1994,01,21,01,5.2
0611100051,1994,01,21,02,5.1
0611100051,1994,01,21,03,4.9
0611100051,1994,01,21,05,5.7
0611100051,1994,01,21,06,5.1
0611100051,1994,01,21,07,5.1
0611100051,1994,01,21,08,5
0611100051,1994,01,21,09,3.8
0611100051,1994,01,21,10,4.6
0611100051,1994,01,21,11,3.8
0611100051,1994,01,21,12,4.5
0611100051,1994,01,21,13,3.5
0611100051,1994,01,21,14,3.5
0611100051,1994,01,21,15,4.7
0611100051,1994,01,21,16,4.8
0611100051,1994,01,21,17,3.5
0611100051,1994,01,21,18,3.5
0611100051,1994,01,21,19,3.9
0611100051,1994,01,21,20,4.2
0611100051,1994,01,21,21,3.9
0611100051,1994,01,21,22,3.9
0611100051,1994,01,21,23,3.9
0611100051,1994,01,22,00,4.2
0611100051,1994,01,22,01,4
0611100051,1994,01,22,02,3.9
0611100051,1994,01,22,03,3.9
0611100051,1994,01,22,05,4
0611100051,1994,01,22,06,4
0611100051,1994,01,22,07,4
0611100051,1994,01,22,08,3.6
0611100051,1994,01,22,09,3
0611100051,1994,01,22,10,4
0611100051,1994,01,22,11,3.8
0611100051,1994,01,22,12,4.3
0611100051,1994,01,22,13,3.8
0611100051,1994,01,22,14,4
0611100051,1994,01,22,15,4.4
0611100051,1994,01,22,16,4
0611100051,1994,01,22,17,2.9
0611100051,1994,01,22,18,2.2
0611100051,1994,01,22,19,3.5
0611100051,1994,01,22,20,2.1
0611100051,1994,01,22,21,2.4
0611100051,1994,01,22,22,2.2
0611100051,1994,01,22,23,2.3
0611100051,1994,01,23,00,2.1
0611100051,1994,01,23,01,2.7
0611100051,1994,01,23,02,2.7
0611100051,1994,01,23,03,2
0611100051,1994,01,23,05,1.8
0611100051,1994,01,23,06,2.2
0611100051,1994,01,23,07,1.6
0611100051,1994,01,23,08,2
0611100051,1994,01,23,09,2.3
0611100051,1994,01,23,10,2.7
0611100051,1994,01,23,11,3.1
0611100051,1994,01,23,12,3.1
0611100051,1994,01,23,13,3.1
0611100051,1994,01,23,14,3.2
0611100051,1994,01,23,15,3.1
0611100051,1994,01,23,16,3.1
0611100051,1994,01,23,17,3.2
0611100051,1994,01,23,18,3.2
0611100051,1994,01,23,19,3
0611100051,1994,01,23,20,3
0611100051,1994,01,23,21,2.7
0611100051,1994,01,23,22,2.7
0611100051,1994,01,23,23,2.6
0611100051,1994,01,24,00,3.3
0611100051,1994,01,24,01,2.4
0611100051,1994,01,24,02,1.8
0611100051,1994,01,24,03,2.5
0611100051,1994,01,24,05,1.7
0611100051,1994,01,24,06,2.2
0611100051,1994,01,24,07,2
0611100051,1994,01,24,08,1.8
0611100051,1994,01,24,09,2
0611100051,1994,01,24,10,2.6
0611100051,1994,01,24,11,3.4
0611100051,1994,01,24,12,3.7
0611100051,1994,01,24,13,4.1
0611100051,1994,01,24,14,4.1
0611100051,1994,01,24,15,3.9
0611100051,1994,01,24,16,3.9
0611100051,1994,01,24,17,3.6
0611100051,1994,01,24,18,3.5
0611100051,1994,01,24,19,3.1
0611100051,1994,01,24,20,3.2
0611100051,1994,01,24,21,3.4
0611100051,1994,01,24,22,3.4
0611100051,1994,01,24,23,3.4
0611100051,1994,01,25,00,3.8
0611100051,1994,01,25,01,3.5
0611100051,1994,01,25,02,3.4
0611100051,1994,01,25,03,3.5
0611100051,1994,01,25,05,3.5
0611100051,1994,01,25,06,3.3
0611100051,1994,01,25,07,3
0611100051,1994,01,25,08,2.9
0611100051,1994,01,25,09,3
0611100051,1994,01,25,10,3
0611100051,1994,01,25,13,3.8
0611100051,1994,01,25,14,3.9
0611100051,1994,01,25,15,3.6
0611100051,1994,01,25,16,3.2
0611100051,1994,01,25,17,2.5
0611100051,1994,01,25,18,2.2
0611100051,1994,01,25,19,2.8
0611100051,1994,01,25,20,3
0611100051,1994,01,25,21,3.1
0611100051,1994,01,25,22,3.3
0611100051,1994,01,25,23,3.2
0611100051,1994,01,26,00,3.2
0611100051,1994,01,26,01,3.3
0611100051,1994,01,26,02,3
0611100051,1994,01,26,03,3
0611100051,1994,01,26,05,2.9
0611100051,1994,01,26,06,2.7
0611100051,1994,01,26,07,2.5
0611100051,1994,01,26,08,2.7
0611100051,1994,01,26,09,3.1
0611100051,1994,01,26,10,3.1
0611100051,1994,01,26,11,3.4
0611100051,1994,01,26,12,3.7
0611100051,1994,01,26,13,3.7
0611100051,1994,01,26,14,3.8
0611100051,1994,01,26,15,3.7
0611100051,1994,01,26,16,3.5
0611100051,1994,01,26,17,3.5
0611100051,1994,01,26,18,3.6
0611100051,1994,01,26,19,3.7
0611100051,1994,01,26,20,3.5
0611100051,1994,01,26,21,3.3
0611100051,1994,01,26,22,3.2
0611100051,1994,01,26,23,3.3
0611100051,1994,01,27,00,3.5
0611100051,1994,01,27,01,3.4
0611100051,1994,01,27,02,3
0611100051,1994,01,27,03,2.9
0611100051,1994,01,27,05,3.2
0611100051,1994,01,27,06,3.2
0611100051,1994,01,27,07,3
0611100051,1994,01,27,08,2.9
0611100051,1994,01,27,09,3.3
0611100051,1994,01,27,10,3.3
0611100051,1994,01,27,11,3.7
0611100051,1994,01,27,12,3.6
0611100051,1994,01,27,13,3.8
0611100051,1994,01,27,14,4
0611100051,1994,01,27,15,4.2
0611100051,1994,01,27,16,4.2
0611100051,1994,01,27,17,4.1
0611100051,1994,01,27,18,3.7
0611100051,1994,01,27,19,3.7
0611100051,1994,01,27,20,3.5
0611100051,1994,01,27,21,3.5
0611100051,1994,01,27,22,3.3
0611100051,1994,01,27,23,3.2
0611100051,1994,01,28,00,3.1
0611100051,1994,01,28,01,3.2
0611100051,1994,01,28,02,3.3
0611100051,1994,01,28,03,3.3
0611100051,1994,01,28,05,3.3
0611100051,1994,01,28,06,3.2
0611100051,1994,01,28,07,3.1
0611100051,1994,01,28,08,2.9
0611100051,1994,01,28,09,3.3
0611100051,1994,01,28,10,3.5
0611100051,1994,01,28,11,3.2
0611100051,1994,01,28,12,3.5
0611100051,1994,01,28,13,3.8
0611100051,1994,01,28,14,3.9
0611100051,1994,01,28,15,3.6
0611100051,1994,01,28,16,3.7
0611100051,1994,01,28,17,3.8
0611100051,1994,01,28,18,3.6
0611100051,1994,01,28,19,3.6
0611100051,1994,01,28,20,3.4
0611100051,1994,01,28,21,3.2
0611100051,1994,01,28,22,3
0611100051,1994,01,28,23,2.9
0611100051,1994,01,29,00,3
0611100051,1994,01,29,01,3.1
0611100051,1994,01,29,02,3.1
0611100051,1994,01,29,03,3.1
0611100051,1994,01,29,05,3.3
0611100051,1994,01,29,06,3.2
0611100051,1994,01,29,07,3.1
0611100051,1994,01,29,08,2.9
0611100051,1994,01,29,09,3
0611100051,1994,01,29,10,3.1
0611100051,1994,01,29,11,3.5
0611100051,1994,01,29,12,3.8
0611100051,1994,01,29,13,4
0611100051,1994,01,29,14,4
0611100051,1994,01,29,15,3.7
0611100051,1994,01,29,16,3.2
0611100051,1994,01,29,17,3.3
0611100051,1994,01,29,18,3.2
0611100051,1994,01,29,19,3.6
0611100051,1994,01,29,20,3.2
0611100051,1994,01,29,21,3.4
0611100051,1994,01,29,22,3.8
0611100051,1994,01,29,23,3.9
0611100051,1994,01,30,00,3.8
0611100051,1994,01,30,01,3.9
0611100051,1994,01,30,02,3.9
0611100051,1994,01,30,03,4
0611100051,1994,01,30,05,4
0611100051,1994,01,30,06,3.9
0611100051,1994,01,30,07,4
0611100051,1994,01,30,08,3.6
0611100051,1994,01,30,09,3.7
0611100051,1994,01,30,10,3.8
0611100051,1994,01,30,11,3.7
0611100051,1994,01,30,12,4
0611100051,1994,01,30,13,4.1
0611100051,1994,01,30,14,4.5
0611100051,1994,01,30,15,4.7
0611100051,1994,01,30,16,4.1
0611100051,1994,01,30,17,3.8
0611100051,1994,01,30,18,3.8
0611100051,1994,01,30,19,3.4
0611100051,1994,01,30,20,3.5
0611100051,1994,01,30,21,3.6
0611100051,1994,01,30,22,3.5
0611100051,1994,01,30,23,3.4
0611100051,1994,01,31,00,3.3
0611100051,1994,01,31,01,3.4
0611100051,1994,01,31,02,3.3
0611100051,1994,01,31,03,3
0611100051,1994,01,31,05,3.3
0611100051,1994,01,31,06,3.3
0611100051,1994,01,31,07,3.3
0611100051,1994,01,31,08,3.2
0611100051,1994,01,31,09,3.4
0611100051,1994,01,31,10,3.6
0611100051,1994,01,31,11,3.7
0611100051,1994,01,31,12,3.8
0611100051,1994,01,31,13,3.9
0611100051,1994,01,31,14,4
0611100051,1994,01,31,15,3.8
0611100051,1994,01,31,16,3.6
0611100051,1994,01,31,17,3.5
0611100051,1994,01,31,18,3.4
0611100051,1994,01,31,19,3.3
0611100051,1994,01,31,20,3.3
0611100051,1994,01,31,21,3.2
0611100051,1994,01,31,22,3.3
0611100051,1994,01,31,23,3.3
0611100051,1994,02,01,00,3.3
0611100051,1994,02,01,01,3.3
0611100051,1994,02,01,02,3.3
0611100051,1994,02,01,03,3.4
0611100051,1994,02,01,05,3.6
0611100051,1994,02,01,06,3.6
0611100051,1994,02,01,07,3.7
0611100051,1994,02,01,08,3.6
0611100051,1994,02,01,09,3.4
0611100051,1994,02,01,10,3.5
0611100051,1994,02,01,21,3.3
0611100051,1994,02,01,22,3.4
0611100051,1994,02,01,23,3.5
0611100051,1994,02,02,00,3.5
0611100051,1994,02,02,01,3.4
0611100051,1994,02,02,02,3.4
0611100051,1994,02,02,03,3.5
0611100051,1994,02,02,05,3.4
0611100051,1994,02,02,06,3.5
0611100051,1994,02,02,07,3.5
0611100051,1994,02,02,08,3
0611100051,1994,02,02,09,3.2
0611100051,1994,02,02,10,3.3
0611100051,1994,02,02,11,3.5
0611100051,1994,02,02,12,3.5
0611100051,1994,02,02,13,3.7
0611100051,1994,02,02,14,3.1
0611100051,1994,02,02,15,3.1
0611100051,1994,02,02,16,3.1
0611100051,1994,02,02,17,2.5
0611100051,1994,02,02,18,2.5
0611100051,1994,02,02,19,2.5
0611100051,1994,02,02,22,3
0611100051,1994,02,02,23,2.8
0611100051,1994,02,03,00,2.4
0611100051,1994,02,03,01,2.6
0611100051,1994,02,03,02,2.9
0611100051,1994,02,03,03,2.8
0611100051,1994,02,03,05,2.6
0611100051,1994,02,03,06,2.4
0611100051,1994,02,03,07,2.1
0611100051,1994,02,03,08,2.3
0611100051,1994,02,03,09,2.8
0611100051,1994,02,03,10,2.8
0611100051,1994,02,03,11,2.5
0611100051,1994,02,03,12,2.8
0611100051,1994,02,03,13,3.1
0611100051,1994,02,03,14,3.3
0611100051,1994,02,03,15,3.3
0611100051,1994,02,03,16,2.8
0611100051,1994,02,03,17,3.4
0611100051,1994,02,03,18,3.4
0611100051,1994,02,03,19,3.4
0611100051,1994,02,03,20,3.2
0611100051,1994,02,03,21,2.8
0611100051,1994,02,03,22,2.3
0611100051,1994,02,03,23,2.1
0611100051,1994,02,04,00,2.2
0611100051,1994,02,04,01,2.5
0611100051,1994,02,04,02,2.9
0611100051,1994,02,04,03,3
0611100051,1994,02,04,05,2.9
0611100051,1994,02,04,06,2.7
0611100051,1994,02,04,07,2.6
0611100051,1994,02,04,08,2.8
0611100051,1994,02,04,09,2.8
0611100051,1994,02,04,10,3
0611100051,1994,02,04,11,3.5
0611100051,1994,02,04,12,3.6
0611100051,1994,02,04,13,3.6
0611100051,1994,02,04,14,3.8
0611100051,1994,02,04,15,3.6
0611100051,1994,02,04,16,3.3
0611100051,1994,02,04,17,3.4
0611100051,1994,02,04,18,3.1
0611100051,1994,02,04,19,2.6
0611100051,1994,02,04,20,2.6
0611100051,1994,02,04,21,2.6
0611100051,1994,02,04,22,2.5
0611100051,1994,02,04,23,2.4
0611100051,1994,02,05,00,2.3
0611100051,1994,02,05,01,1.9
0611100051,1994,02,05,02,2.2
0611100051,1994,02,05,03,2.2
0611100051,1994,02,05,05,1.7
0611100051,1994,02,05,06,1.8
0611100051,1994,02,05,07,2.1
0611100051,1994,02,05,08,2.1
0611100051,1994,02,05,09,2.6
0611100051,1994,02,05,10,3.4
0611100051,1994,02,05,11,3.8
0611100051,1994,02,05,12,3.9
0611100051,1994,02,05,13,3.6
0611100051,1994,02,05,14,4.2
0611100051,1994,02,05,15,4.6
0611100051,1994,02,05,16,4.4
0611100051,1994,02,05,17,4.3
0611100051,1994,02,05,18,4.4
0611100051,1994,02,05,19,4.2
0611100051,1994,02,05,20,4
0611100051,1994,02,05,21,3.9
0611100051,1994,02,05,22,3.5
0611100051,1994,02,05,23,3.3
0611100051,1994,02,06,00,3.1
0611100051,1994,02,06,01,2.5
0611100051,1994,02,06,02,2.2
0611100051,1994,02,06,03,2.4
0611100051,1994,02,06,05,2.3